"startDT [UTC]","vpos","CH4 [ppm]","stdev(CH4) [ppm]","CO2 [ppm]","stdev(CO2) [ppm]","H2O_reported [%]","stdev(H2O_reported)","CavityPressure [torr]","CavityTemp [C]","OutletValve","CH4_dry [ppm]","CO2_dry [ppm]","DasTemp [C]","EtalonTemp [C]","WarmBoxTemp [C]","MPVPosition","T_ECpre [C]","T_EC1 [C]","T_EC2 [C]","p_inlet [hPa]","p_in [hPa]","p_out [hPa]","T_inlet [C]","RH_inlet [%]","dwpt_inlet [C]","T_vent [C]","RH_vent [%]","dwpt_vent [C]","flow_vent [l min-1]","flow_inlet [l min-1]","dwpt_sample [C]","T_room [C]"
2015-08-09 00:00:00,0.0,1.89865,0.00118,379.902,0.123,1.7024,0.0039,139.999,45.000,32077.39837,1.93238,388.128,40.746,45.065,45.000,0.00,0.11,-272.71,-272.78,-8,642,-15,31.4,28.9,11.2,31.1,31.9,12.4,5.73,1.68,11.4,34.9
2015-08-09 00:01:00,0.0,1.89805,0.00111,380.040,0.068,1.7005,0.0067,140.001,45.000,32078.50677,1.93151,388.270,40.742,45.065,45.000,0.00,0.11,-272.70,-272.77,-8,642,-15,31.4,28.6,11.0,31.1,31.9,12.4,5.73,1.66,11.4,34.9
2015-08-09 00:02:00,0.0,1.89929,0.00137,380.044,0.135,1.6917,0.0023,139.997,45.000,32080.29917,1.93260,388.225,40.739,45.065,45.000,0.00,0.11,-272.70,-272.77,-8,642,-15,31.4,28.6,11.0,31.1,31.9,12.4,5.73,1.65,11.4,34.9
2015-08-09 00:03:00,0.0,1.90017,0.00141,379.798,0.110,1.6953,0.0037,140.001,45.000,32082.01124,1.93383,387.985,40.750,45.065,45.000,0.00,0.11,-272.70,-272.78,-8,642,-15,31.4,28.7,11.1,31.1,31.9,12.4,5.73,1.64,11.4,34.9
2015-08-09 00:04:00,0.0,1.89830,0.00191,379.853,0.146,1.7007,0.0020,140.000,45.000,32080.33079,1.93186,388.078,40.749,45.065,45.000,0.00,0.11,-272.71,-272.77,-8,642,-15,31.4,28.7,11.1,31.1,31.8,12.4,5.73,1.64,11.4,35.0
2015-08-09 00:05:00,0.0,1.89904,0.00217,379.844,0.168,1.6980,0.0023,139.998,45.000,32078.51414,1.93269,388.043,40.750,45.065,45.000,0.00,0.11,-272.70,-272.77,-8,642,-15,31.4,28.6,11.0,31.1,31.8,12.4,5.73,1.63,11.4,35.0
2015-08-09 00:06:00,0.0,1.89807,0.00199,379.882,0.187,1.6946,0.0028,140.000,45.000,32078.27725,1.93128,388.087,40.750,45.065,45.000,0.00,0.11,-272.71,-272.77,-8,642,-15,31.4,28.6,11.0,31.1,31.8,12.4,5.73,1.64,11.4,35.0
2015-08-09 00:07:00,0.0,1.89987,0.00181,379.655,0.137,1.6965,0.0040,140.002,45.000,32079.86275,1.93362,387.843,40.750,45.065,45.000,0.00,0.11,-272.71,-272.77,-8,642,-15,31.4,28.7,11.1,31.1,31.8,12.4,5.73,1.64,11.4,35.0
2015-08-09 00:08:00,0.0,1.90016,0.00163,379.563,0.124,1.7019,0.0023,140.003,45.000,32079.98629,1.93375,387.784,40.750,45.065,45.000,0.00,0.11,-272.70,-272.76,-8,642,-15,31.4,28.8,11.1,31.1,31.8,12.4,5.73,1.66,11.4,35.0
2015-08-09 00:09:00,0.0,1.89665,0.00121,379.736,0.115,1.7056,0.0031,139.999,45.000,32079.33188,1.93038,387.979,40.750,45.065,45.000,0.00,0.11,-272.70,-272.78,-8,642,-15,31.5,28.7,11.1,31.1,31.7,12.3,5.73,1.66,11.4,35.0
2015-08-09 00:10:00,0.0,1.89874,0.00124,379.439,0.156,1.7010,0.0028,139.997,45.000,32079.87215,1.93227,387.659,40.750,45.065,45.000,0.00,0.11,-272.70,-272.77,-8,642,-15,31.5,28.7,11.1,31.1,31.7,12.3,5.73,1.68,11.5,35.0
2015-08-09 00:11:00,0.0,1.89748,0.00199,379.478,0.199,1.7088,0.0039,140.003,45.000,32080.11112,1.93120,387.730,40.750,45.065,45.000,0.00,0.11,-272.70,-272.77,-8,642,-15,31.4,28.9,11.2,31.1,31.7,12.3,5.73,1.69,11.5,35.0
2015-08-09 00:12:00,0.0,1.90067,0.00186,379.231,0.257,1.7108,0.0034,140.001,45.000,32078.64230,1.93464,387.480,40.747,45.065,45.000,0.00,0.11,-272.70,-272.77,-8,642,-15,31.5,28.9,11.2,31.1,31.7,12.3,5.73,1.69,11.4,35.0
2015-08-09 00:13:00,0.0,1.89912,0.00156,379.539,0.099,1.7161,0.0034,140.001,45.000,32080.29523,1.93287,387.836,40.736,45.065,45.000,0.00,0.11,-272.71,-272.78,-8,642,-15,31.5,28.9,11.2,31.1,31.6,12.3,5.73,1.69,11.5,35.0
2015-08-09 00:14:00,0.0,1.90164,0.00186,379.263,0.195,1.7093,0.0025,140.002,45.000,32080.02224,1.93546,387.522,40.731,45.065,45.000,0.00,0.11,-272.70,-272.77,-8,642,-15,31.5,28.9,11.2,31.2,31.6,12.3,5.73,1.69,11.5,35.0
2015-08-09 00:15:00,0.0,1.90181,0.00116,379.038,0.092,1.7194,0.0042,139.999,45.000,32078.85398,1.93595,387.336,40.750,45.065,45.000,0.00,0.11,-272.70,-272.77,-8,642,-15,31.5,29.1,11.3,31.2,31.6,12.3,5.73,1.68,11.5,35.1
2015-08-09 00:16:00,0.0,1.89864,0.00123,379.162,0.130,1.7277,0.0029,140.001,45.000,32078.47929,1.93292,387.499,40.750,45.065,45.000,0.00,0.11,-272.70,-272.77,-8,642,-15,31.5,29.1,11.3,31.2,31.5,12.3,5.73,1.67,11.5,35.0
2015-08-09 00:17:00,0.0,1.89887,0.00135,379.147,0.191,1.7226,0.0031,139.997,45.000,32079.19677,1.93290,387.469,40.750,45.065,45.000,0.00,0.11,-272.71,-272.77,-8,642,-15,31.5,29.0,11.3,31.2,31.5,12.3,5.73,1.65,11.5,35.0
2015-08-09 00:18:00,0.0,1.89776,0.00166,379.261,0.291,1.7264,0.0034,140.004,45.000,32080.77956,1.93192,387.596,40.750,45.065,45.000,0.00,0.11,-272.70,-272.77,-8,642,-15,31.5,29.1,11.3,31.2,31.5,12.3,5.73,1.65,11.5,35.0
2015-08-09 00:19:00,0.0,1.89767,0.00176,379.388,0.338,1.7256,0.0028,140.002,45.000,32079.60117,1.93174,387.723,40.750,45.065,45.000,0.00,0.11,-272.70,-272.77,-8,642,-15,31.5,29.1,11.3,31.2,31.5,12.2,5.73,1.64,11.5,35.1
2015-08-09 00:20:00,0.0,1.89879,0.00134,379.341,0.207,1.7232,0.0036,139.998,45.000,32075.43236,1.93297,387.658,40.759,45.065,45.000,0.00,0.11,-272.70,-272.77,-8,642,-15,31.5,29.0,11.3,31.2,31.4,12.2,5.73,1.63,11.5,35.0
2015-08-09 00:21:00,0.0,1.89761,0.00110,379.476,0.156,1.7242,0.0022,140.001,45.000,32077.06292,1.93177,387.804,40.753,45.065,45.000,0.00,0.11,-272.70,-272.77,-8,642,-15,31.5,29.0,11.3,31.2,31.4,12.2,5.73,1.64,11.5,35.0
2015-08-09 00:22:00,0.0,1.89741,0.00119,379.537,0.238,1.7203,0.0023,140.002,45.000,32079.53328,1.93139,387.850,40.752,45.065,45.000,0.00,0.11,-272.70,-272.76,-8,642,-15,31.5,28.9,11.3,31.2,31.4,12.2,5.73,1.64,11.5,35.0
2015-08-09 00:23:00,0.0,1.89728,0.00116,379.648,0.201,1.7188,0.0027,140.002,45.000,32078.64361,1.93107,387.963,40.765,45.065,45.000,0.00,0.11,-272.70,-272.77,-8,642,-15,31.5,28.9,11.3,31.2,31.4,12.2,5.73,1.64,11.5,35.0
2015-08-09 00:24:00,0.0,1.89804,0.00179,379.474,0.238,1.7180,0.0024,140.002,45.000,32079.57229,1.93198,387.782,40.780,45.065,45.000,0.00,0.11,-272.70,-272.78,-8,642,-15,31.5,28.9,11.3,31.2,31.3,12.2,5.73,1.66,11.5,35.0
2015-08-09 00:25:00,0.0,1.90150,0.00230,378.978,0.208,1.7215,0.0037,140.000,45.000,32078.78407,1.93531,387.295,40.771,45.064,45.000,0.00,0.11,-272.69,-272.77,-8,642,-15,31.5,29.1,11.3,31.2,31.3,12.2,5.73,1.67,11.5,35.1
2015-08-09 00:26:00,0.0,1.90145,0.00289,379.175,0.330,1.7337,0.0040,140.000,45.000,32077.51107,1.93587,387.539,40.799,45.064,45.000,0.00,0.11,-272.70,-272.77,-8,642,-15,31.5,29.3,11.4,31.2,31.3,12.2,5.73,1.68,11.5,35.1
2015-08-09 00:27:00,0.0,1.90654,0.00294,378.885,0.258,1.7335,0.0047,139.999,45.000,32078.83226,1.94110,387.243,40.807,45.064,45.000,0.00,0.11,-272.70,-272.78,-8,642,-15,31.5,29.3,11.4,31.2,31.3,12.2,5.73,1.68,11.5,35.1
2015-08-09 00:28:00,0.0,1.90542,0.00235,379.084,0.165,1.7366,0.0040,140.001,45.000,32079.65087,1.93960,387.484,40.812,45.064,45.000,0.00,0.11,-272.70,-272.77,-8,642,-15,31.5,29.2,11.4,31.2,31.3,12.2,5.73,1.69,11.5,35.0
2015-08-09 00:29:00,0.0,1.90343,0.00414,379.337,0.384,1.7307,0.0040,140.002,45.000,32080.80964,1.93823,387.681,40.813,45.064,45.000,0.00,0.11,-272.70,-272.77,-8,642,-15,31.5,29.1,11.4,31.2,31.3,12.2,5.73,1.69,11.5,35.1
2015-08-09 00:30:00,0.0,1.90019,0.00279,379.727,0.260,1.7146,0.0062,140.000,45.000,32081.99340,1.93379,388.034,40.813,45.064,45.000,0.00,0.11,-272.70,-272.78,-8,642,-15,31.5,28.7,11.1,31.2,31.3,12.2,5.73,1.68,11.5,35.1
2015-08-09 00:31:00,0.0,1.89957,0.00291,379.797,0.354,1.7131,0.0060,140.001,45.000,32080.81592,1.93373,388.058,40.813,45.064,45.000,0.00,0.11,-272.70,-272.77,-8,642,-15,31.5,28.8,11.2,31.2,31.2,12.2,5.73,1.68,11.5,35.0
2015-08-09 00:32:00,0.0,1.89971,0.00191,379.918,0.235,1.7059,0.0058,140.000,45.000,32081.49873,1.93329,388.179,40.810,45.064,45.000,0.00,0.11,-272.70,-272.76,-8,642,-16,31.6,28.5,11.1,31.2,31.2,12.2,5.73,1.67,11.5,35.0
2015-08-09 00:33:00,0.0,1.90304,0.00079,379.517,0.112,1.7034,0.0047,139.998,45.000,32079.69113,1.93672,387.742,40.812,45.065,45.000,0.00,0.11,-272.70,-272.77,-8,642,-15,31.6,28.7,11.2,31.2,31.2,12.2,5.73,1.66,11.5,35.1
2015-08-09 00:34:00,0.0,1.90304,0.00199,379.620,0.195,1.7138,0.0022,140.002,45.000,32078.36354,1.93718,387.894,40.799,45.065,45.000,0.00,0.11,-272.70,-272.77,-8,642,-15,31.6,28.7,11.2,31.2,31.2,12.2,5.73,1.64,11.5,35.1
2015-08-09 00:35:00,0.0,1.90143,0.00191,379.765,0.179,1.7052,0.0030,140.000,45.000,32078.39103,1.93499,388.014,40.782,45.065,45.000,0.00,0.11,-272.70,-272.77,-8,642,-15,31.6,28.6,11.1,31.2,31.2,12.2,5.73,1.65,11.5,35.1
2015-08-09 00:36:00,0.0,1.90542,0.00488,379.308,0.376,1.7061,0.0062,139.997,45.000,32076.76008,1.93943,387.539,40.772,45.065,45.000,0.00,0.11,-272.70,-272.77,-8,642,-15,31.6,28.8,11.2,31.2,31.2,12.2,5.73,1.63,11.5,35.1
2015-08-09 00:37:00,0.0,1.90396,0.00292,379.231,0.256,1.7173,0.0038,140.002,45.000,32078.12666,1.93781,387.536,40.799,45.065,45.000,0.00,0.11,-272.70,-272.77,-8,642,-15,31.6,28.8,11.2,31.2,31.2,12.2,5.73,1.64,11.5,35.1
2015-08-09 00:38:00,0.0,1.90419,0.00192,379.050,0.242,1.7196,0.0034,139.998,45.000,32077.78948,1.93821,387.358,40.807,45.065,45.000,0.00,0.11,-272.70,-272.76,-8,642,-15,31.6,28.9,11.3,31.2,31.2,12.2,5.73,1.64,11.5,35.1
2015-08-09 00:39:00,0.0,1.90609,0.00245,378.711,0.302,1.7258,0.0031,140.002,45.000,32080.50639,1.94045,387.025,40.808,45.065,45.000,0.00,0.11,-272.70,-272.76,-8,642,-15,31.6,29.0,11.4,31.2,31.2,12.2,5.73,1.65,11.5,35.1
2015-08-09 00:40:00,0.0,1.90127,0.00257,379.237,0.208,1.7267,0.0066,140.001,45.000,32081.80374,1.93555,387.572,40.813,45.065,45.000,0.00,0.11,-272.70,-272.78,-8,642,-16,31.6,28.8,11.3,31.2,31.2,12.2,5.73,1.65,11.5,35.0
2015-08-09 00:41:00,0.0,1.90178,0.00178,379.423,0.173,1.7126,0.0031,140.001,45.000,32081.57443,1.93590,387.684,40.813,45.065,45.000,0.00,0.11,-272.70,-272.77,-8,642,-15,31.6,28.6,11.2,31.2,31.2,12.2,5.73,1.67,11.5,35.1
2015-08-09 00:42:00,0.0,1.90538,0.00334,379.025,0.408,1.7040,0.0029,140.001,45.000,32081.11564,1.93893,387.263,40.812,45.065,45.000,0.00,0.11,-272.70,-272.77,-8,642,-15,31.6,28.6,11.2,31.2,31.2,12.2,5.73,1.67,11.5,35.1
2015-08-09 00:43:00,0.0,1.90088,0.00231,379.327,0.249,1.7148,0.0044,140.001,45.000,32079.84391,1.93482,387.609,40.813,45.065,45.000,0.00,0.11,-272.70,-272.77,-8,642,-15,31.6,28.7,11.2,31.2,31.1,12.1,5.73,1.69,11.5,35.1
2015-08-09 00:44:00,0.0,1.90189,0.00091,379.113,0.130,1.7042,0.0029,139.999,45.000,32078.00814,1.93576,387.332,40.808,45.065,45.000,0.00,0.11,-272.71,-272.77,-8,642,-15,31.6,28.5,11.1,31.2,31.1,12.1,5.73,1.68,11.5,35.1
2015-08-09 00:45:00,0.0,1.89856,0.00210,379.642,0.386,1.7054,0.0022,140.002,45.000,32079.70405,1.93234,387.871,40.809,45.065,45.000,0.00,0.11,-272.70,-272.77,-8,642,-15,31.6,28.5,11.1,31.2,31.1,12.1,5.73,1.69,11.5,35.1
2015-08-09 00:46:00,0.0,1.90046,0.00119,379.603,0.214,1.6857,0.0058,140.000,45.000,32078.16024,1.93378,387.743,40.811,45.065,45.000,0.00,0.11,-272.70,-272.77,-8,642,-15,31.6,28.1,10.9,31.2,31.1,12.1,5.73,1.68,11.5,35.1
2015-08-09 00:47:00,0.0,1.90106,0.00113,379.377,0.185,1.6838,0.0036,140.001,45.000,32079.83029,1.93439,387.500,40.813,45.065,45.000,0.00,0.11,-272.71,-272.77,-8,642,-15,31.6,28.2,11.0,31.2,31.1,12.1,5.73,1.68,11.5,35.1
2015-08-09 00:48:00,0.0,1.89952,0.00156,379.570,0.257,1.6896,0.0037,139.999,45.000,32078.62322,1.93280,387.735,40.814,45.065,45.000,0.00,0.11,-272.70,-272.77,-8,642,-15,31.6,28.2,10.9,31.2,31.1,12.1,5.73,1.67,11.5,35.1
2015-08-09 00:49:00,0.0,1.89988,0.00128,379.512,0.196,1.6876,0.0038,140.001,45.000,32076.90733,1.93333,387.650,40.813,45.065,45.000,0.00,0.11,-272.69,-272.76,-8,642,-16,31.6,28.2,10.9,31.2,31.1,12.1,5.73,1.66,11.5,35.1
2015-08-09 00:50:00,0.0,1.90201,0.00160,379.186,0.317,1.6839,0.0035,140.001,45.000,32076.93876,1.93518,387.320,40.813,45.064,45.000,0.00,0.11,-272.70,-272.77,-8,642,-16,31.6,28.2,10.9,31.2,31.1,12.1,5.73,1.65,11.5,35.1
2015-08-09 00:51:00,0.0,1.89948,0.00134,379.677,0.295,1.6880,0.0036,139.999,45.000,32075.72880,1.93300,387.810,40.818,45.065,45.000,0.00,0.11,-272.70,-272.78,-8,642,-16,31.6,28.1,10.9,31.3,31.1,12.1,5.73,1.64,11.5,35.1
2015-08-09 00:52:00,0.0,1.90254,0.00170,379.469,0.145,1.6753,0.0029,140.003,45.000,32078.08763,1.93544,387.565,40.814,45.065,45.000,0.00,0.11,-272.69,-272.77,-8,642,-15,31.6,28.0,10.8,31.3,31.1,12.1,5.73,1.63,11.5,35.1
2015-08-09 00:53:00,0.0,1.90424,0.00161,379.246,0.169,1.6829,0.0040,140.000,45.000,32080.42669,1.93765,387.352,40.816,45.065,45.000,0.00,0.11,-272.69,-272.77,-8,642,-15,31.6,28.2,10.9,31.3,31.0,12.1,5.73,1.64,11.5,35.1
2015-08-09 00:54:00,0.0,1.90346,0.00279,379.457,0.424,1.6869,0.0039,140.001,45.000,32077.98152,1.93667,387.612,40.823,45.065,45.000,0.00,0.11,-272.70,-272.78,-8,642,-15,31.6,28.1,10.9,31.2,31.0,12.1,5.73,1.64,11.5,35.1
2015-08-09 00:55:00,0.0,1.90353,0.00355,379.423,0.348,1.6889,0.0052,139.999,45.000,32077.25746,1.93714,387.563,40.828,45.065,45.000,0.00,0.11,-272.70,-272.77,-8,642,-16,31.6,28.3,11.0,31.2,31.0,12.1,5.73,1.64,11.5,35.1
2015-08-09 00:56:00,0.0,1.90259,0.00256,379.629,0.240,1.6839,0.0057,140.002,45.000,32080.24382,1.93603,387.755,40.834,45.065,45.000,0.00,0.11,-272.70,-272.77,-8,642,-15,31.6,28.0,10.9,31.3,31.0,12.1,5.73,1.66,11.5,35.2
2015-08-09 00:57:00,0.0,1.90093,0.00138,379.418,0.227,1.6756,0.0025,139.998,45.000,32080.11275,1.93403,387.511,40.829,45.065,45.000,0.00,0.11,-272.71,-272.77,-8,642,-15,31.6,28.0,10.8,31.3,31.0,12.1,5.73,1.67,11.5,35.1
2015-08-09 00:58:00,0.0,1.89925,0.00240,379.454,0.291,1.6841,0.0026,140.002,45.000,32079.07729,1.93246,387.587,40.849,45.065,45.000,0.00,0.11,-272.70,-272.77,-8,642,-15,31.6,28.1,10.9,31.3,31.0,12.1,5.73,1.68,11.6,35.1
2015-08-09 00:59:00,0.0,1.90299,0.00153,378.977,0.228,1.6872,0.0072,140.004,45.000,32079.26806,1.93631,387.111,40.841,45.064,45.000,0.00,0.11,-272.70,-272.76,-8,642,-16,31.6,28.3,11.0,31.3,31.0,12.1,5.73,1.68,11.6,35.1
2015-08-09 01:00:00,0.0,1.90525,0.00147,378.503,0.296,1.6986,0.0036,140.000,45.000,32080.66619,1.93885,386.698,40.822,45.064,45.000,0.00,0.11,-272.70,-272.77,-8,642,-16,31.6,28.5,11.1,31.3,30.9,12.1,5.73,1.69,11.6,35.1
2015-08-09 01:01:00,0.0,1.90987,0.00262,378.483,0.200,1.7136,0.0042,140.001,45.000,32079.70063,1.94359,386.730,40.821,45.065,45.000,0.00,0.11,-272.70,-272.77,-8,642,-15,31.6,28.7,11.2,31.3,30.9,12.1,5.73,1.69,11.6,35.1
2015-08-09 01:02:00,0.0,1.91378,0.00200,378.296,0.209,1.7145,0.0023,140.002,45.000,32079.19491,1.94808,386.550,40.840,45.065,45.000,0.00,0.11,-272.70,-272.76,-8,642,-16,31.6,28.7,11.2,31.3,30.9,12.1,5.73,1.68,11.6,35.2
2015-08-09 01:03:00,0.0,1.90351,0.00186,379.008,0.134,1.7164,0.0049,140.000,45.000,32080.52068,1.93781,387.288,40.842,45.065,45.000,0.00,0.11,-272.70,-272.77,-8,642,-16,31.6,28.6,11.2,31.3,30.9,12.1,5.73,1.68,11.6,35.2
2015-08-09 01:04:00,0.0,1.91172,0.00366,378.680,0.259,1.7043,0.0028,140.000,45.000,32078.97288,1.94557,386.885,40.865,45.065,45.000,0.00,0.11,-272.70,-272.77,-8,642,-15,31.6,28.5,11.2,31.3,30.9,12.1,5.73,1.67,11.5,35.1
2015-08-09 01:05:00,0.0,1.90677,0.00157,379.355,0.228,1.7020,0.0070,139.999,45.000,32080.59814,1.94048,387.568,40.868,45.065,45.000,0.00,0.11,-272.70,-272.77,-8,642,-16,31.6,28.2,11.0,31.3,30.9,12.1,5.73,1.65,11.6,35.1
2015-08-09 01:06:00,0.0,1.90735,0.00256,379.495,0.251,1.6866,0.0027,139.999,45.000,32082.75283,1.94089,387.631,40.872,45.065,45.000,0.00,0.11,-272.70,-272.77,-8,642,-16,31.6,28.2,11.0,31.3,30.8,12.1,5.73,1.65,11.6,35.1
2015-08-09 01:07:00,0.0,1.90409,0.00301,380.075,0.409,1.6849,0.0065,140.002,45.000,32083.23472,1.93753,388.213,40.870,45.064,45.000,0.00,0.11,-272.70,-272.77,-8,642,-16,31.6,27.9,10.8,31.3,30.8,12.0,5.73,1.64,11.6,35.0
2015-08-09 01:08:00,0.0,1.90669,0.00200,379.810,0.196,1.6705,0.0100,140.001,45.000,32083.08264,1.93992,387.870,40.859,45.064,45.000,0.00,0.11,-272.70,-272.77,-8,642,-15,31.6,28.1,10.9,31.3,30.8,12.0,5.73,1.63,11.6,35.1
2015-08-09 01:09:00,0.0,1.90737,0.00214,379.697,0.245,1.6869,0.0044,140.002,45.000,32084.86821,1.94075,387.847,40.859,45.065,45.000,0.00,0.11,-272.69,-272.77,-8,642,-15,31.6,28.2,11.0,31.3,30.8,12.0,5.73,1.63,11.6,35.1
2015-08-09 01:10:00,0.0,1.90518,0.00321,379.818,0.357,1.6948,0.0044,140.001,45.000,32084.01913,1.93892,387.999,40.863,45.065,45.000,0.00,0.11,-272.70,-272.77,-8,642,-16,31.6,28.2,11.0,31.3,30.8,12.0,5.73,1.64,11.6,35.1
2015-08-09 01:11:00,0.0,1.90669,0.00269,379.768,0.301,1.6866,0.0058,140.002,45.000,32083.19944,1.93973,387.941,40.868,45.065,45.000,0.00,0.11,-272.71,-272.77,-8,642,-16,31.6,28.1,10.9,31.3,30.8,12.0,5.73,1.65,11.6,35.1
2015-08-09 01:12:00,0.0,1.91060,0.00167,379.012,0.219,1.7042,0.0087,140.003,45.000,32085.21880,1.94440,387.241,40.848,45.065,45.000,0.00,0.11,-272.70,-272.77,-8,642,-15,31.6,28.7,11.2,31.3,30.8,12.0,5.73,1.66,11.6,35.1
2015-08-09 01:13:00,0.0,1.91441,0.00135,378.404,0.143,1.7289,0.0065,140.000,45.000,32083.32558,1.94885,386.737,40.838,45.065,45.000,0.00,0.11,-272.70,-272.76,-8,642,-16,31.6,29.1,11.5,31.3,30.8,12.0,5.73,1.67,11.6,35.1
2015-08-09 01:14:00,0.0,1.91568,0.00226,378.173,0.186,1.7479,0.0028,140.000,45.000,32084.28246,1.95025,386.613,40.849,45.065,45.000,0.00,0.11,-272.70,-272.77,-8,642,-16,31.6,29.3,11.6,31.3,30.7,12.0,5.73,1.68,11.6,35.1
2015-08-09 01:15:00,0.0,1.91662,0.00204,378.116,0.198,1.7559,0.0038,140.002,45.000,32083.92262,1.95176,386.573,40.842,45.065,45.000,0.00,0.11,-272.70,-272.77,-8,642,-16,31.6,29.4,11.6,31.3,30.7,12.0,5.73,1.68,11.6,35.2
2015-08-09 01:16:00,0.0,1.91501,0.00373,378.419,0.379,1.7591,0.0016,140.001,45.000,32085.08529,1.95027,386.904,40.862,45.065,45.000,0.00,0.11,-272.70,-272.77,-8,642,-16,31.6,29.4,11.6,31.3,30.7,12.0,5.73,1.70,11.6,35.2
2015-08-09 01:17:00,0.0,1.91447,0.00199,378.656,0.447,1.7544,0.0031,140.001,45.000,32083.18237,1.94971,387.098,40.870,45.065,45.000,0.00,0.11,-272.70,-272.77,-8,642,-16,31.7,29.4,11.6,31.3,30.7,12.0,5.73,1.69,11.6,35.1
2015-08-09 01:18:00,0.0,1.91296,0.00113,379.192,0.070,1.7458,0.0096,140.003,45.000,32084.52833,1.94764,387.635,40.869,45.065,45.000,0.00,0.11,-272.70,-272.77,-8,642,-16,31.7,29.0,11.4,31.3,30.7,12.0,5.73,1.69,11.6,35.1
2015-08-09 01:19:00,0.0,1.90891,0.00465,379.554,0.352,1.7319,0.0029,140.001,45.000,32086.87410,1.94369,387.917,40.875,45.065,45.000,0.00,0.11,-272.69,-272.77,-8,642,-16,31.7,28.8,11.3,31.4,30.7,12.0,5.73,1.67,11.6,35.1
2015-08-09 01:20:00,0.0,1.91006,0.00268,379.551,0.243,1.7175,0.0040,140.002,45.000,32086.20383,1.94414,387.851,40.875,45.065,45.000,0.00,0.11,-272.70,-272.77,-8,642,-16,31.6,28.6,11.2,31.4,30.7,12.0,5.73,1.66,11.6,35.2
2015-08-09 01:21:00,0.0,1.91188,0.00192,379.694,0.158,1.7147,0.0048,140.002,45.000,32084.85005,1.94603,387.975,40.875,45.064,45.000,0.00,0.11,-272.70,-272.77,-8,642,-16,31.7,28.5,11.2,31.4,30.7,12.0,5.73,1.66,11.6,35.1
2015-08-09 01:22:00,0.0,1.90431,0.00248,380.386,0.187,1.7071,0.0059,140.002,45.000,32085.38409,1.93822,388.646,40.877,45.064,45.000,0.00,0.11,-272.70,-272.77,-8,642,-16,31.7,28.3,11.1,31.4,30.7,12.0,5.73,1.65,11.6,35.2
2015-08-09 01:23:00,0.0,1.90834,0.00186,380.237,0.106,1.6867,0.0037,140.000,45.000,32082.89864,1.94160,388.404,40.878,45.064,45.000,0.00,0.11,-272.70,-272.77,-8,642,-16,31.7,28.0,10.9,31.4,30.7,12.0,5.73,1.63,11.6,35.2
2015-08-09 01:24:00,0.0,1.90800,0.00339,380.247,0.278,1.6888,0.0031,140.001,45.000,32085.01499,1.94192,388.400,40.878,45.064,45.000,0.00,0.11,-272.70,-272.77,-8,642,-16,31.7,28.1,10.9,31.3,30.7,12.0,5.73,1.64,11.6,35.2
2015-08-09 01:25:00,0.0,1.90566,0.00089,380.528,0.090,1.6815,0.0050,140.003,45.000,32085.31359,1.93893,388.666,40.875,45.065,45.000,0.00,0.11,-272.70,-272.77,-8,642,-16,31.7,27.9,10.8,31.3,30.7,12.0,5.73,1.64,11.6,35.2
2015-08-09 01:26:00,0.0,1.90190,0.00130,380.851,0.115,1.6733,0.0021,139.999,45.000,32082.61590,1.93509,388.951,40.877,45.065,45.000,0.00,0.11,-272.70,-272.76,-8,642,-16,31.7,27.7,10.8,31.4,30.7,12.0,5.73,1.65,11.6,35.1
2015-08-09 01:27:00,0.0,1.90635,0.00211,380.332,0.196,1.6701,0.0031,140.000,45.000,32085.61190,1.93919,388.417,40.875,45.065,45.000,0.00,0.11,-272.71,-272.77,-8,642,-16,31.7,27.8,10.8,31.4,30.7,12.0,5.73,1.64,11.6,35.2
2015-08-09 01:28:00,0.0,1.90941,0.00102,379.811,0.174,1.6885,0.0064,139.999,45.000,32084.96675,1.94290,387.978,40.875,45.065,45.000,0.00,0.11,-272.71,-272.77,-8,642,-16,31.7,28.2,11.0,31.4,30.7,12.0,5.73,1.67,11.6,35.2
2015-08-09 01:29:00,0.0,1.90986,0.00089,379.405,0.138,1.7045,0.0040,139.998,45.000,32086.97232,1.94375,387.640,40.875,45.065,45.000,0.00,0.11,-272.69,-272.77,-8,642,-16,31.7,28.5,11.2,31.4,30.7,12.1,5.73,1.67,11.6,35.2
2015-08-09 01:30:00,0.0,1.90657,0.00182,379.853,0.306,1.7169,0.0031,140.005,45.000,32087.36427,1.94094,388.129,40.875,45.065,45.000,0.00,0.11,-272.70,-272.77,-8,642,-16,31.7,28.6,11.2,31.4,30.7,12.0,5.73,1.69,11.6,35.2
2015-08-09 01:31:00,0.0,1.90517,0.00136,380.198,0.129,1.7041,0.0067,139.998,45.000,32082.68232,1.93886,388.449,40.870,45.065,45.000,0.00,0.11,-272.70,-272.77,-8,642,-16,31.7,28.2,11.0,31.4,30.7,12.0,5.73,1.68,11.6,35.1
2015-08-09 01:32:00,0.0,1.90806,0.00078,379.840,0.100,1.6984,0.0032,140.000,45.000,32084.28613,1.94172,388.057,40.874,45.065,45.000,0.00,0.11,-272.70,-272.77,-8,642,-16,31.7,28.3,11.1,31.4,30.7,12.1,5.73,1.69,11.6,35.2
2015-08-09 01:33:00,0.0,1.90845,0.00061,379.589,0.123,1.7068,0.0029,139.999,45.000,32084.19470,1.94231,387.839,40.875,45.065,45.000,0.00,0.11,-272.70,-272.77,-8,642,-16,31.7,28.5,11.2,31.4,30.7,12.0,5.73,1.69,11.6,35.2
2015-08-09 01:34:00,0.0,1.90832,0.00123,379.381,0.202,1.7156,0.0025,139.997,45.000,32083.95327,1.94245,387.670,40.878,45.065,45.000,0.00,0.11,-272.70,-272.77,-8,642,-16,31.7,28.6,11.2,31.4,30.7,12.0,5.73,1.69,11.6,35.2
2015-08-09 01:35:00,0.0,1.90844,0.00145,379.241,0.116,1.7230,0.0032,139.999,45.000,32084.85691,1.94272,387.561,40.879,45.065,45.000,0.00,0.11,-272.70,-272.77,-8,642,-16,31.7,28.8,11.3,31.4,30.7,12.1,5.73,1.67,11.6,35.2
2015-08-09 01:36:00,0.0,1.90716,0.00155,379.256,0.205,1.7272,0.0019,140.000,45.000,32086.21641,1.94160,387.594,40.893,45.065,45.000,0.00,0.11,-272.70,-272.77,-8,642,-16,31.7,28.8,11.3,31.4,30.7,12.0,5.73,1.66,11.6,35.1
2015-08-09 01:37:00,0.0,1.90914,0.00186,379.050,0.277,1.7260,0.0021,139.997,45.000,32085.82637,1.94332,387.386,40.908,45.065,45.000,0.00,0.11,-272.70,-272.77,-8,642,-16,31.7,28.8,11.3,31.4,30.7,12.0,5.73,1.65,11.6,35.2
2015-08-09 01:38:00,0.0,1.90563,0.00161,379.573,0.250,1.7318,0.0031,140.001,45.000,32085.36229,1.94016,387.932,40.918,45.064,45.000,0.00,0.11,-272.70,-272.78,-8,642,-16,31.7,28.8,11.4,31.4,30.7,12.0,5.73,1.64,11.6,35.2
2015-08-09 01:39:00,0.0,1.91038,0.00227,379.057,0.317,1.7216,0.0054,139.998,45.000,32085.45047,1.94439,387.389,40.928,45.064,45.000,0.00,0.11,-272.70,-272.77,-8,642,-16,31.7,28.6,11.2,31.4,30.7,12.0,5.73,1.63,11.6,35.2
2015-08-09 01:40:00,0.0,1.90586,0.00079,379.665,0.144,1.7244,0.0041,140.000,45.000,32084.00619,1.94033,387.984,40.934,45.064,45.000,0.00,0.11,-272.70,-272.77,-8,642,-16,31.7,28.7,11.3,31.4,30.7,12.0,5.73,1.64,11.6,35.2
2015-08-09 01:41:00,0.0,1.91079,0.00206,379.113,0.286,1.7225,0.0030,139.999,45.000,32084.20882,1.94476,387.444,40.920,45.064,45.000,0.00,0.11,-272.71,-272.77,-8,642,-16,31.7,28.7,11.3,31.4,30.6,12.0,5.73,1.64,11.6,35.2
2015-08-09 01:42:00,0.0,1.90840,0.00352,379.305,0.369,1.7371,0.0023,140.003,45.000,32085.76688,1.94323,387.686,40.937,45.064,45.000,0.00,0.11,-272.70,-272.77,-8,642,-16,31.7,28.9,11.4,31.4,30.6,12.0,5.73,1.64,11.6,35.2
2015-08-09 01:43:00,0.0,1.90150,0.00160,380.268,0.236,1.7254,0.0094,140.000,45.000,32084.67861,1.93580,388.617,40.940,45.064,45.000,0.00,0.11,-272.70,-272.77,-8,642,-16,31.7,28.4,11.2,31.4,30.6,12.0,5.73,1.66,11.6,35.2
2015-08-09 01:44:00,0.0,1.90563,0.00158,379.989,0.193,1.6942,0.0050,139.999,45.000,32083.75818,1.93900,388.191,40.938,45.065,45.000,0.00,0.11,-272.70,-272.77,-8,642,-16,31.7,28.1,11.0,31.4,30.6,12.0,5.73,1.67,11.6,35.2
2015-08-09 01:45:00,0.0,1.90715,0.00100,379.715,0.150,1.7017,0.0039,140.004,45.000,32083.71114,1.94091,387.938,40.939,45.064,45.000,0.00,0.11,-272.70,-272.77,-8,642,-16,31.7,28.4,11.1,31.4,30.6,12.0,5.73,1.68,11.6,35.2
2015-08-09 01:46:00,0.0,1.90483,0.00405,379.987,0.454,1.7117,0.0028,139.998,45.000,32083.22768,1.93912,388.245,40.937,45.065,45.000,0.00,0.11,-272.70,-272.77,-8,642,-16,31.7,28.4,11.2,31.4,30.6,12.0,5.73,1.69,11.6,35.2